Time,TemperatureF,DewpointF,PressureIn,WindDirection,WindDirectionDegrees,WindSpeedMPH,WindSpeedGustMPH,Humidity,HourlyPrecipIn,Conditions,Clouds,dailyrainin,SoftwareType,DateUTC
2013-04-17 00:00:00,59.4,57.6,30.14,WSW,255,0.0,0.0,94,0.01,,,0.67,meteohub,2013-04-17 04:00:00,
2013-04-17 00:01:00,59.4,57.6,30.14,WSW,255,0.0,0.0,94,0.00,,,0.67,meteohub,2013-04-17 04:01:00,
2013-04-17 00:02:00,59.2,57.4,30.14,WSW,255,0.0,0.0,94,0.00,,,0.67,meteohub,2013-04-17 04:02:00,
2013-04-17 00:04:00,59.2,57.4,30.14,WSW,255,0.0,0.0,94,0.00,,,0.67,meteohub,2013-04-17 04:04:00,
2013-04-17 00:09:00,59.2,57.4,30.14,North,354,0.0,0.0,94,0.00,,,0.00,meteohub,2013-04-17 04:09:00,
2013-04-17 00:14:00,59.4,57.9,30.14,North,354,0.0,1.0,95,0.00,,,0.00,meteohub,2013-04-17 04:14:00,
2013-04-17 00:19:00,59.2,57.7,30.14,North,354,0.0,1.0,95,0.00,,,0.00,meteohub,2013-04-17 04:19:00,
2013-04-17 00:25:00,59.0,57.6,30.14,North,354,0.0,1.0,95,0.00,,,0.00,meteohub,2013-04-17 04:25:00,
2013-04-17 00:30:00,58.8,57.4,30.13,NNE,24,0.0,1.0,95,0.00,,,0.00,meteohub,2013-04-17 04:30:00,
2013-04-17 00:35:00,58.6,56.8,30.13,NNE,25,0.0,1.0,94,0.00,,,0.00,meteohub,2013-04-17 04:35:00,
2013-04-17 00:41:00,58.5,57.0,30.13,NNE,25,0.0,1.0,95,0.00,,,0.00,meteohub,2013-04-17 04:41:00,
2013-04-17 00:46:00,58.3,56.8,30.13,NNE,24,0.0,0.0,95,0.00,,,0.00,meteohub,2013-04-17 04:46:00,
2013-04-17 00:51:00,58.3,56.8,30.13,NNE,25,0.0,0.0,95,0.00,,,0.00,meteohub,2013-04-17 04:51:00,
2013-04-17 00:57:00,58.5,57.0,30.12,NNE,24,0.0,0.0,95,0.00,,,0.00,meteohub,2013-04-17 04:57:00,
2013-04-17 01:02:00,58.3,56.8,30.12,East,97,1.0,1.0,95,0.00,,,0.00,meteohub,2013-04-17 05:02:00,
2013-04-17 01:07:00,58.3,56.8,30.12,East,97,0.0,2.0,95,0.00,,,0.00,meteohub,2013-04-17 05:07:00,
2013-04-17 01:12:00,57.9,56.5,30.12,East,97,0.0,2.0,95,0.00,,,0.00,meteohub,2013-04-17 05:12:00,
2013-04-17 01:17:00,57.6,55.8,30.12,East,97,0.0,2.0,94,0.00,,,0.00,meteohub,2013-04-17 05:17:00,
2013-04-17 01:22:00,57.6,56.1,30.12,East,97,0.0,1.0,95,0.00,,,0.00,meteohub,2013-04-17 05:22:00,
2013-04-17 01:27:00,57.4,55.9,30.12,East,98,0.0,1.0,95,0.00,,,0.00,meteohub,2013-04-17 05:27:00,
2013-04-17 01:32:00,57.0,55.6,30.12,East,98,0.0,1.0,95,0.00,,,0.00,meteohub,2013-04-17 05:32:00,
2013-04-17 01:37:00,57.0,55.6,30.12,East,99,0.0,1.0,95,0.00,,,0.00,meteohub,2013-04-17 05:37:00,
2013-04-17 01:42:00,56.8,55.4,30.12,East,98,0.0,1.0,95,0.00,,,0.00,meteohub,2013-04-17 05:42:00,
2013-04-17 01:47:00,56.7,55.2,30.12,East,98,0.0,0.0,95,0.00,,,0.00,meteohub,2013-04-17 05:47:00,
2013-04-17 01:52:00,56.7,55.2,30.12,East,98,0.0,0.0,95,0.00,,,0.00,meteohub,2013-04-17 05:52:00,
2013-04-17 01:58:00,56.3,54.9,30.13,East,98,0.0,0.0,95,0.00,,,0.00,meteohub,2013-04-17 05:58:00,
2013-04-17 02:03:00,56.3,54.9,30.13,East,99,0.0,0.0,95,0.00,,,0.00,meteohub,2013-04-17 06:03:00,
2013-04-17 02:08:00,56.5,55.4,30.13,East,98,0.0,0.0,96,0.00,,,0.00,meteohub,2013-04-17 06:08:00,
2013-04-17 02:13:00,56.8,55.8,30.12,East,97,0.0,0.0,96,0.00,,,0.00,meteohub,2013-04-17 06:13:00,
2013-04-17 02:18:00,56.7,55.6,30.13,East,97,0.0,1.0,96,0.00,,,0.00,meteohub,2013-04-17 06:18:00,
2013-04-17 02:24:00,56.5,55.0,30.12,East,97,0.0,1.0,95,0.00,,,0.00,meteohub,2013-04-17 06:24:00,
2013-04-17 02:29:00,56.3,54.9,30.12,East,97,0.0,1.0,95,0.00,,,0.00,meteohub,2013-04-17 06:29:00,
2013-04-17 02:34:00,56.3,55.2,30.12,East,97,0.0,0.0,96,0.00,,,0.00,meteohub,2013-04-17 06:34:00,
2013-04-17 02:39:00,56.1,55.0,30.12,East,97,0.0,0.0,96,0.00,,,0.00,meteohub,2013-04-17 06:39:00,
2013-04-17 02:44:00,55.9,54.9,30.12,East,97,0.0,0.0,96,0.00,,,0.00,meteohub,2013-04-17 06:44:00,
2013-04-17 02:50:00,55.8,54.3,30.12,East,98,0.0,0.0,95,0.00,,,0.00,meteohub,2013-04-17 06:50:00,
2013-04-17 02:55:00,55.6,54.1,30.12,East,97,0.0,0.0,95,0.00,,,0.00,meteohub,2013-04-17 06:55:00,
2013-04-17 03:00:00,55.6,54.5,30.12,East,98,0.0,0.0,96,0.00,,,0.00,meteohub,2013-04-17 07:00:00,
2013-04-17 03:05:00,55.2,53.8,30.12,East,98,0.0,0.0,95,0.00,,,0.00,meteohub,2013-04-17 07:05:00,
2013-04-17 03:11:00,55.0,53.6,30.12,East,98,0.0,0.0,95,0.00,,,0.00,meteohub,2013-04-17 07:11:00,
2013-04-17 03:16:00,55.0,54.0,30.12,East,97,0.0,0.0,96,0.00,,,0.00,meteohub,2013-04-17 07:16:00,
2013-04-17 03:21:00,55.0,54.0,30.12,East,98,0.0,0.0,96,0.00,,,0.00,meteohub,2013-04-17 07:21:00,
2013-04-17 03:27:00,55.0,54.0,30.12,East,97,0.0,0.0,96,0.00,,,0.00,meteohub,2013-04-17 07:27:00,
2013-04-17 03:32:00,54.9,53.8,30.12,East,97,0.0,0.0,96,0.00,,,0.00,meteohub,2013-04-17 07:32:00,
2013-04-17 03:37:00,54.9,53.8,30.13,East,97,0.0,0.0,96,0.00,,,0.00,meteohub,2013-04-17 07:37:00,
2013-04-17 03:42:00,54.9,53.8,30.13,East,98,0.0,0.0,96,0.00,,,0.00,meteohub,2013-04-17 07:42:00,
2013-04-17 03:47:00,54.7,53.6,30.13,East,97,0.0,0.0,96,0.00,,,0.00,meteohub,2013-04-17 07:47:00,
2013-04-17 03:52:00,54.9,53.8,30.14,East,97,0.0,0.0,96,0.00,,,0.00,meteohub,2013-04-17 07:52:00,
2013-04-17 03:57:00,54.9,53.8,30.14,East,97,0.0,0.0,96,0.00,,,0.00,meteohub,2013-04-17 07:57:00,
2013-04-17 04:02:00,54.7,53.6,30.14,East,98,0.0,0.0,96,0.00,,,0.00,meteohub,2013-04-17 08:02:00,
2013-04-17 04:07:00,54.5,53.4,30.15,East,97,0.0,0.0,96,0.00,,,0.00,meteohub,2013-04-17 08:07:00,
2013-04-17 04:12:00,54.5,53.4,30.15,East,97,0.0,0.0,96,0.00,,,0.00,meteohub,2013-04-17 08:12:00,
2013-04-17 04:17:00,54.7,53.6,30.15,East,97,0.0,0.0,96,0.00,,,0.00,meteohub,2013-04-17 08:17:00,
2013-04-17 04:22:00,55.0,54.0,30.15,East,97,0.0,0.0,96,0.00,,,0.00,meteohub,2013-04-17 08:22:00,
2013-04-17 04:27:00,55.2,54.1,30.15,East,97,0.0,0.0,96,0.00,,,0.00,meteohub,2013-04-17 08:27:00,
2013-04-17 04:32:00,55.2,54.1,30.15,NW,325,0.0,0.0,96,0.00,,,0.00,meteohub,2013-04-17 08:32:00,
2013-04-17 04:37:00,55.0,54.0,30.16,NW,325,0.0,0.0,96,0.00,,,0.00,meteohub,2013-04-17 08:37:00,
2013-04-17 04:43:00,54.9,53.8,30.16,NW,323,0.0,0.0,96,0.00,,,0.00,meteohub,2013-04-17 08:43:00,
2013-04-17 04:48:00,55.0,54.0,30.16,NW,325,0.0,0.0,96,0.00,,,0.00,meteohub,2013-04-17 08:48:00,
2013-04-17 04:53:00,55.2,54.1,30.16,NW,323,0.0,0.0,96,0.00,,,0.00,meteohub,2013-04-17 08:53:00,
2013-04-17 04:58:00,55.6,54.5,30.16,NW,325,0.0,0.0,96,0.00,,,0.00,meteohub,2013-04-17 08:58:00,
2013-04-17 05:04:00,55.6,54.5,30.16,NW,325,0.0,0.0,96,0.00,,,0.00,meteohub,2013-04-17 09:04:00,
2013-04-17 05:09:00,55.8,54.7,30.16,NW,325,0.0,0.0,96,0.00,,,0.00,meteohub,2013-04-17 09:09:00,
2013-04-17 05:14:00,55.8,54.7,30.16,NW,325,0.0,0.0,96,0.00,,,0.00,meteohub,2013-04-17 09:14:00,
2013-04-17 05:19:00,55.9,54.9,30.17,NW,325,0.0,0.0,96,0.00,,,0.00,meteohub,2013-04-17 09:19:00,
2013-04-17 05:25:00,55.9,54.9,30.17,NW,323,0.0,0.0,96,0.00,,,0.00,meteohub,2013-04-17 09:25:00,
2013-04-17 05:30:00,55.8,54.7,30.17,NW,321,0.0,1.0,96,0.00,,,0.00,meteohub,2013-04-17 09:30:00,
2013-04-17 05:35:00,55.8,54.7,30.18,NW,322,0.0,1.0,96,0.00,,,0.00,meteohub,2013-04-17 09:35:00,
2013-04-17 05:41:00,55.9,54.9,30.17,WNW,284,0.0,1.0,96,0.00,,,0.00,meteohub,2013-04-17 09:41:00,
2013-04-17 05:47:00,55.9,54.9,30.17,WNW,284,0.0,1.0,96,0.00,,,0.00,meteohub,2013-04-17 09:47:00,
2013-04-17 05:52:00,56.1,55.0,30.17,WNW,283,0.0,1.0,96,0.00,,,0.00,meteohub,2013-04-17 09:52:00,
2013-04-17 05:57:00,56.1,55.0,30.17,WNW,284,0.0,1.0,96,0.00,,,0.00,meteohub,2013-04-17 09:57:00,
2013-04-17 06:02:00,56.1,55.0,30.17,WNW,284,0.0,0.0,96,0.00,,,0.00,meteohub,2013-04-17 10:02:00,
2013-04-17 06:07:00,56.3,55.2,30.16,WNW,284,0.0,0.0,96,0.00,,,0.00,meteohub,2013-04-17 10:07:00,
2013-04-17 06:12:00,56.3,55.4,30.16,WNW,283,0.0,1.0,97,0.00,,,0.00,meteohub,2013-04-17 10:12:00,
2013-04-17 06:17:00,56.5,55.6,30.15,WNW,285,0.0,1.0,97,0.00,,,0.00,meteohub,2013-04-17 10:17:00,
2013-04-17 06:22:00,56.5,55.6,30.15,WNW,285,0.0,1.0,97,0.00,,,0.00,meteohub,2013-04-17 10:22:00,
2013-04-17 06:28:00,56.5,55.6,30.16,WNW,285,0.0,1.0,97,0.00,,,0.00,meteohub,2013-04-17 10:28:00,
2013-04-17 06:33:00,56.5,55.6,30.16,WNW,285,0.0,1.0,97,0.00,,,0.00,meteohub,2013-04-17 10:33:00,
2013-04-17 06:38:00,56.5,55.6,30.17,WNW,285,0.0,0.0,97,0.00,,,0.00,meteohub,2013-04-17 10:38:00,
2013-04-17 06:44:00,56.5,55.4,30.17,WNW,285,0.0,0.0,96,0.00,,,0.00,meteohub,2013-04-17 10:44:00,
2013-04-17 06:49:00,56.5,55.4,30.17,WNW,285,0.0,0.0,96,0.00,,,0.00,meteohub,2013-04-17 10:49:00,
2013-04-17 06:54:00,56.5,55.4,30.18,WNW,285,0.0,0.0,96,0.00,,,0.00,meteohub,2013-04-17 10:54:00,
2013-04-17 06:59:00,56.5,55.4,30.18,WNW,285,0.0,0.0,96,0.00,,,0.00,meteohub,2013-04-17 10:59:00,
2013-04-17 07:05:00,56.5,55.6,30.18,WNW,285,0.0,0.0,97,0.00,,,0.00,meteohub,2013-04-17 11:05:00,
2013-04-17 07:10:00,56.5,55.6,30.18,WNW,285,0.0,0.0,97,0.00,,,0.00,meteohub,2013-04-17 11:10:00,
2013-04-17 07:15:00,56.7,55.8,30.18,WNW,285,0.0,0.0,97,0.00,,,0.00,meteohub,2013-04-17 11:15:00,
2013-04-17 07:20:00,56.7,55.8,30.19,WNW,285,0.0,1.0,97,0.00,,,0.00,meteohub,2013-04-17 11:20:00,
2013-04-17 07:25:00,56.8,55.9,30.19,WNW,285,0.0,1.0,97,0.01,,,0.01,meteohub,2013-04-17 11:25:00,
2013-04-17 07:31:00,56.8,55.9,30.19,WNW,285,0.0,1.0,97,0.01,,,0.01,meteohub,2013-04-17 11:31:00,
2013-04-17 07:36:00,56.8,55.9,30.19,WNW,285,0.0,0.0,97,0.01,,,0.01,meteohub,2013-04-17 11:36:00,
2013-04-17 07:41:00,56.8,55.9,30.20,WNW,285,0.0,0.0,97,0.01,,,0.01,meteohub,2013-04-17 11:41:00,
2013-04-17 07:47:00,56.8,55.9,30.19,WNW,285,0.0,0.0,97,0.01,,,0.01,meteohub,2013-04-17 11:47:00,
2013-04-17 07:52:00,56.8,55.9,30.19,WNW,285,0.0,0.0,97,0.01,,,0.01,meteohub,2013-04-17 11:52:00,
2013-04-17 07:57:00,56.8,55.9,30.19,WNW,285,0.0,0.0,97,0.01,,,0.01,meteohub,2013-04-17 11:57:00,
2013-04-17 08:02:00,57.0,56.1,30.19,WNW,285,0.0,0.0,97,0.01,,,0.01,meteohub,2013-04-17 12:02:00,
2013-04-17 08:07:00,57.0,56.1,30.19,WNW,285,0.0,0.0,97,0.01,,,0.01,meteohub,2013-04-17 12:07:00,
2013-04-17 08:13:00,57.0,56.1,30.19,WNW,285,0.0,0.0,97,0.01,,,0.01,meteohub,2013-04-17 12:13:00,
2013-04-17 08:18:00,57.4,56.5,30.19,WNW,285,0.0,0.0,97,0.01,,,0.01,meteohub,2013-04-17 12:18:00,
2013-04-17 08:23:00,57.4,56.5,30.20,WNW,285,0.0,0.0,97,0.00,,,0.01,meteohub,2013-04-17 12:23:00,
2013-04-17 08:28:00,57.4,56.5,30.20,WNW,285,0.0,0.0,97,0.00,,,0.01,meteohub,2013-04-17 12:28:00,
2013-04-17 08:34:00,57.4,56.5,30.20,WNW,285,0.0,1.0,97,0.00,,,0.01,meteohub,2013-04-17 12:34:00,
2013-04-17 08:39:00,57.4,56.5,30.20,WNW,285,0.0,1.0,97,0.00,,,0.01,meteohub,2013-04-17 12:39:00,
2013-04-17 08:44:00,57.4,56.5,30.20,WNW,285,0.0,1.0,97,0.00,,,0.01,meteohub,2013-04-17 12:44:00,
2013-04-17 08:49:00,57.4,56.5,30.20,WNW,285,0.0,0.0,97,0.00,,,0.01,meteohub,2013-04-17 12:49:00,
2013-04-17 08:54:00,57.6,56.7,30.20,WNW,285,0.0,0.0,97,0.00,,,0.01,meteohub,2013-04-17 12:54:00,
2013-04-17 08:59:00,57.6,56.7,30.19,WNW,285,0.0,0.0,97,0.00,,,0.01,meteohub,2013-04-17 12:59:00,
2013-04-17 09:04:00,57.7,56.8,30.20,WNW,285,0.0,0.0,97,0.00,,,0.01,meteohub,2013-04-17 13:04:00,
2013-04-17 09:09:00,57.9,57.0,30.20,WNW,285,0.0,0.0,97,0.00,,,0.01,meteohub,2013-04-17 13:09:00,
2013-04-17 09:15:00,58.1,57.2,30.20,WNW,285,0.0,0.0,97,0.00,,,0.01,meteohub,2013-04-17 13:15:00,
2013-04-17 09:20:00,58.1,57.2,30.20,West,281,0.0,1.0,97,0.00,,,0.01,meteohub,2013-04-17 13:20:00,
2013-04-17 09:25:00,58.1,57.2,30.20,NNW,334,0.0,1.0,97,0.00,,,0.01,meteohub,2013-04-17 13:25:00,
2013-04-17 09:31:00,57.9,57.0,30.20,North,9,1.0,1.0,97,0.00,,,0.01,meteohub,2013-04-17 13:31:00,
2013-04-17 09:36:00,57.9,56.8,30.20,North,9,0.0,1.0,96,0.00,,,0.01,meteohub,2013-04-17 13:36:00,
2013-04-17 09:41:00,57.7,56.7,30.21,North,8,0.0,1.0,96,0.00,,,0.01,meteohub,2013-04-17 13:41:00,
2013-04-17 09:47:00,57.7,56.7,30.21,North,10,0.0,1.0,96,0.00,,,0.01,meteohub,2013-04-17 13:47:00,
2013-04-17 09:52:00,57.6,56.5,30.22,NNE,32,0.0,2.0,96,0.00,,,0.01,meteohub,2013-04-17 13:52:00,
2013-04-17 09:57:00,57.6,56.5,30.22,NNW,348,0.0,2.0,96,0.00,,,0.01,meteohub,2013-04-17 13:57:00,
2013-04-17 10:02:00,57.4,56.3,30.22,NNW,347,0.0,2.0,96,0.00,,,0.01,meteohub,2013-04-17 14:02:00,
2013-04-17 10:07:00,57.2,56.1,30.22,NNW,347,0.0,2.0,96,0.00,,,0.01,meteohub,2013-04-17 14:07:00,
2013-04-17 10:13:00,57.4,56.3,30.22,North,354,0.0,2.0,96,0.00,,,0.01,meteohub,2013-04-17 14:13:00,
2013-04-17 10:18:00,57.0,55.9,30.22,NW,326,0.0,1.0,96,0.00,,,0.01,meteohub,2013-04-17 14:18:00,
2013-04-17 10:23:00,57.0,55.9,30.21,NNW,330,0.0,1.0,96,0.00,,,0.01,meteohub,2013-04-17 14:23:00,
2013-04-17 10:28:00,57.2,56.1,30.21,North,356,0.0,1.0,96,0.00,,,0.01,meteohub,2013-04-17 14:28:00,
2013-04-17 10:33:00,57.4,56.5,30.21,NW,314,0.0,1.0,97,0.00,,,0.01,meteohub,2013-04-17 14:33:00,
2013-04-17 10:38:00,57.6,56.5,30.21,NW,314,0.0,1.0,96,0.00,,,0.01,meteohub,2013-04-17 14:38:00,
2013-04-17 10:44:00,57.6,56.7,30.20,NNW,342,0.0,1.0,97,0.00,,,0.01,meteohub,2013-04-17 14:44:00,
2013-04-17 10:49:00,57.7,56.7,30.21,West,281,0.0,0.0,96,0.00,,,0.01,meteohub,2013-04-17 14:49:00,
2013-04-17 10:54:00,57.7,56.7,30.21,NNW,341,2.0,2.0,96,0.00,,,0.01,meteohub,2013-04-17 14:54:00,
2013-04-17 10:59:00,57.7,56.7,30.21,NNW,335,0.0,1.0,96,0.00,,,0.01,meteohub,2013-04-17 14:59:00,
2013-04-17 11:04:00,57.4,56.3,30.22,WNW,285,0.0,3.0,96,0.00,,,0.01,meteohub,2013-04-17 15:04:00,
2013-04-17 11:09:00,57.4,56.3,30.22,NNW,335,0.0,4.0,96,0.00,,,0.01,meteohub,2013-04-17 15:09:00,
2013-04-17 11:15:00,57.4,56.3,30.22,WNW,287,0.0,4.0,96,0.00,,,0.01,meteohub,2013-04-17 15:15:00,
2013-04-17 11:20:00,57.4,56.3,30.22,North,6,0.0,4.0,96,0.00,,,0.01,meteohub,2013-04-17 15:20:00,
2013-04-17 11:25:00,57.6,56.5,30.22,SW,235,0.0,3.0,96,0.00,,,0.01,meteohub,2013-04-17 15:25:00,
2013-04-17 11:31:00,57.7,56.7,30.22,WNW,295,0.0,2.0,96,0.00,,,0.01,meteohub,2013-04-17 15:31:00,
2013-04-17 11:36:00,57.7,56.7,30.22,North,11,0.0,2.0,96,0.00,,,0.01,meteohub,2013-04-17 15:36:00,
2013-04-17 11:41:00,57.9,56.8,30.22,North,1,0.0,2.0,96,0.00,,,0.01,meteohub,2013-04-17 15:41:00,
2013-04-17 11:46:00,57.9,56.5,30.22,WSW,248,0.0,1.0,95,0.00,,,0.01,meteohub,2013-04-17 15:46:00,
2013-04-17 11:52:00,58.1,56.7,30.22,WNW,284,0.0,1.0,95,0.00,,,0.01,meteohub,2013-04-17 15:52:00,
2013-04-17 11:57:00,58.3,56.8,30.22,NW,307,0.0,1.0,95,0.00,,,0.01,meteohub,2013-04-17 15:57:00,
2013-04-17 12:02:00,58.5,57.0,30.22,NW,306,0.0,1.0,95,0.00,,,0.01,meteohub,2013-04-17 16:02:00,
2013-04-17 12:07:00,58.5,56.7,30.23,NW,308,0.0,1.0,94,0.00,,,0.01,meteohub,2013-04-17 16:07:00,
2013-04-17 12:12:00,58.5,57.0,30.22,NW,314,0.0,1.0,95,0.00,,,0.01,meteohub,2013-04-17 16:12:00,
2013-04-17 12:17:00,58.5,56.7,30.22,WNW,297,0.0,1.0,94,0.00,,,0.01,meteohub,2013-04-17 16:17:00,
2013-04-17 12:22:00,58.5,56.7,30.23,WNW,297,0.0,2.0,94,0.00,,,0.01,meteohub,2013-04-17 16:22:00,
2013-04-17 12:27:00,58.5,56.7,30.22,WNW,297,0.0,2.0,94,0.00,,,0.01,meteohub,2013-04-17 16:27:00,
2013-04-17 12:32:00,58.6,56.8,30.22,WNW,302,0.0,2.0,94,0.00,,,0.01,meteohub,2013-04-17 16:32:00,
2013-04-17 12:37:00,58.8,57.0,30.22,WNW,302,0.0,1.0,94,0.00,,,0.01,meteohub,2013-04-17 16:37:00,
2013-04-17 12:42:00,59.0,57.0,30.22,WNW,296,0.0,1.0,93,0.00,,,0.01,meteohub,2013-04-17 16:42:00,
2013-04-17 12:48:00,59.2,57.2,30.21,WNW,298,0.0,1.0,93,0.00,,,0.01,meteohub,2013-04-17 16:48:00,
2013-04-17 12:53:00,59.7,57.4,30.21,WNW,295,1.0,1.0,92,0.00,,,0.01,meteohub,2013-04-17 16:53:00,
2013-04-17 12:58:00,60.1,57.4,30.21,North,6,2.0,3.0,91,0.00,,,0.01,meteohub,2013-04-17 16:58:00,
2013-04-17 13:03:00,60.6,57.9,30.21,WNW,300,1.0,3.0,91,0.00,,,0.01,meteohub,2013-04-17 17:03:00,
2013-04-17 13:08:00,61.2,57.9,30.21,NNW,338,0.0,3.0,89,0.00,,,0.01,meteohub,2013-04-17 17:08:00,
2013-04-17 13:14:00,61.2,58.3,30.21,NW,323,1.0,2.0,90,0.00,,,0.01,meteohub,2013-04-17 17:14:00,
2013-04-17 13:19:00,61.7,58.1,30.20,West,277,1.0,3.0,88,0.00,,,0.01,meteohub,2013-04-17 17:19:00,
2013-04-17 13:24:00,62.4,58.8,30.21,SW,233,0.0,3.0,88,0.00,,,0.01,meteohub,2013-04-17 17:24:00,
2013-04-17 13:30:00,63.3,59.0,30.21,WSW,257,1.0,3.0,86,0.00,,,0.01,meteohub,2013-04-17 17:30:00,
2013-04-17 13:35:00,63.0,58.1,30.20,West,276,0.0,3.0,84,0.00,,,0.01,meteohub,2013-04-17 17:35:00,
2013-04-17 13:40:00,63.1,58.3,30.20,South,174,0.0,3.0,84,0.00,,,0.01,meteohub,2013-04-17 17:40:00,
2013-04-17 13:45:00,63.5,58.6,30.19,West,278,1.0,3.0,84,0.00,,,0.01,meteohub,2013-04-17 17:45:00,
2013-04-17 13:50:00,64.0,59.4,30.19,NNW,347,0.0,3.0,85,0.00,,,0.01,meteohub,2013-04-17 17:50:00,
2013-04-17 13:56:00,65.1,59.9,30.19,NW,320,0.0,3.0,83,0.00,,,0.01,meteohub,2013-04-17 17:56:00,
2013-04-17 14:01:00,64.9,58.6,30.20,SW,231,2.0,3.0,80,0.00,,,0.01,meteohub,2013-04-17 18:01:00,
2013-04-17 14:06:00,64.6,58.6,30.19,WSW,249,1.0,4.0,81,0.00,,,0.01,meteohub,2013-04-17 18:06:00,
2013-04-17 14:11:00,64.8,59.2,30.19,WNW,285,2.0,4.0,82,0.00,,,0.01,meteohub,2013-04-17 18:11:00,
2013-04-17 14:16:00,64.9,59.7,30.19,West,263,1.0,3.0,83,0.00,,,0.01,meteohub,2013-04-17 18:16:00,
2013-04-17 14:21:00,64.9,59.0,30.19,ENE,77,0.0,2.0,81,0.00,,,0.01,meteohub,2013-04-17 18:21:00,
2013-04-17 14:27:00,65.3,59.4,30.18,NNE,17,0.0,3.0,81,0.00,,,0.01,meteohub,2013-04-17 18:27:00,
2013-04-17 14:32:00,65.7,59.4,30.18,West,279,2.0,3.0,80,0.00,,,0.01,meteohub,2013-04-17 18:32:00,
2013-04-17 14:37:00,65.1,58.8,30.18,WSW,240,0.0,3.0,80,0.00,,,0.01,meteohub,2013-04-17 18:37:00,
2013-04-17 14:42:00,65.7,59.0,30.18,SE,124,0.0,3.0,79,0.00,,,0.01,meteohub,2013-04-17 18:42:00,
2013-04-17 14:47:00,66.4,59.7,30.18,North,11,0.0,3.0,79,0.00,,,0.01,meteohub,2013-04-17 18:47:00,
2013-04-17 14:53:00,66.7,59.7,30.17,North,9,1.0,2.0,78,0.00,,,0.01,meteohub,2013-04-17 18:53:00,
2013-04-17 14:58:00,66.6,59.9,30.17,WNW,283,2.0,3.0,79,0.00,,,0.01,meteohub,2013-04-17 18:58:00,
2013-04-17 15:03:00,66.7,59.7,30.17,West,270,1.0,3.0,78,0.00,,,0.01,meteohub,2013-04-17 19:03:00,
2013-04-17 15:09:00,66.7,60.1,30.16,West,277,1.0,3.0,79,0.00,,,0.01,meteohub,2013-04-17 19:09:00,
2013-04-17 15:14:00,66.7,59.7,30.16,WNW,293,1.0,3.0,78,0.00,,,0.01,meteohub,2013-04-17 19:14:00,
2013-04-17 15:19:00,66.9,59.9,30.16,WNW,284,0.0,4.0,78,0.00,,,0.01,meteohub,2013-04-17 19:19:00,
2013-04-17 15:24:00,67.3,59.5,30.16,West,274,1.0,4.0,76,0.00,,,0.01,meteohub,2013-04-17 19:24:00,
2013-04-17 15:29:00,67.6,59.7,30.16,NNE,15,0.0,4.0,76,0.00,,,0.01,meteohub,2013-04-17 19:29:00,
2013-04-17 15:35:00,67.6,59.7,30.16,West,278,0.0,3.0,76,0.00,,,0.01,meteohub,2013-04-17 19:35:00,
2013-04-17 15:40:00,67.6,59.4,30.17,West,277,3.0,4.0,75,0.00,,,0.01,meteohub,2013-04-17 19:40:00,
2013-04-17 15:45:00,67.5,60.4,30.17,WNW,288,0.0,4.0,78,0.00,,,0.01,meteohub,2013-04-17 19:45:00,
2013-04-17 15:50:00,67.6,59.7,30.16,North,5,2.0,4.0,76,0.00,,,0.01,meteohub,2013-04-17 19:50:00,
2013-04-17 15:55:00,67.8,59.5,30.16,NNW,328,1.0,4.0,75,0.00,,,0.01,meteohub,2013-04-17 19:55:00,
2013-04-17 16:01:00,68.2,60.3,30.16,North,350,0.0,4.0,76,0.00,,,0.01,meteohub,2013-04-17 20:01:00,
2013-04-17 16:06:00,68.4,60.4,30.16,West,281,3.0,3.0,76,0.00,,,0.01,meteohub,2013-04-17 20:06:00,
2013-04-17 16:11:00,67.6,59.7,30.16,WNW,301,0.0,4.0,76,0.00,,,0.01,meteohub,2013-04-17 20:11:00,
2013-04-17 16:16:00,68.0,60.4,30.16,WNW,299,0.0,5.0,77,0.00,,,0.01,meteohub,2013-04-17 20:16:00,
2013-04-17 16:22:00,67.8,59.5,30.16,WNW,287,0.0,5.0,75,0.00,,,0.01,meteohub,2013-04-17 20:22:00,
2013-04-17 16:27:00,67.6,59.7,30.16,WNW,297,0.0,3.0,76,0.00,,,0.01,meteohub,2013-04-17 20:27:00,
2013-04-17 16:32:00,67.6,59.7,30.16,West,271,1.0,3.0,76,0.00,,,0.01,meteohub,2013-04-17 20:32:00,
2013-04-17 16:37:00,67.8,59.5,30.15,West,281,1.0,3.0,75,0.00,,,0.01,meteohub,2013-04-17 20:37:00,
2013-04-17 16:42:00,68.2,59.9,30.15,NW,304,0.0,3.0,75,0.00,,,0.01,meteohub,2013-04-17 20:42:00,
2013-04-17 16:47:00,68.4,59.4,30.15,West,264,1.0,3.0,73,0.00,,,0.01,meteohub,2013-04-17 20:47:00,
2013-04-17 16:52:00,68.4,59.4,30.15,SSE,158,0.0,3.0,73,0.00,,,0.01,meteohub,2013-04-17 20:52:00,
2013-04-17 16:58:00,69.3,60.3,30.15,WSW,240,1.0,2.0,73,0.00,,,0.01,meteohub,2013-04-17 20:58:00,
2013-04-17 17:03:00,70.2,59.9,30.14,West,267,0.0,2.0,70,0.00,,,0.01,meteohub,2013-04-17 21:03:00,
2013-04-17 17:09:00,70.0,60.1,30.14,WNW,288,0.0,2.0,71,0.00,,,0.01,meteohub,2013-04-17 21:09:00,
2013-04-17 17:14:00,69.4,60.4,30.15,WNW,293,3.0,3.0,73,0.00,,,0.01,meteohub,2013-04-17 21:14:00,
2013-04-17 17:19:00,69.1,60.1,30.15,NNW,340,0.0,4.0,73,0.00,,,0.01,meteohub,2013-04-17 21:19:00,
2013-04-17 17:25:00,69.3,59.9,30.15,WNW,295,0.0,4.0,72,0.00,,,0.01,meteohub,2013-04-17 21:25:00,
2013-04-17 17:30:00,69.1,60.1,30.15,WNW,294,0.0,4.0,73,0.00,,,0.01,meteohub,2013-04-17 21:30:00,
2013-04-17 17:35:00,69.1,60.4,30.15,WNW,302,0.0,3.0,74,0.00,,,0.01,meteohub,2013-04-17 21:35:00,
2013-04-17 17:40:00,69.3,60.3,30.15,WNW,287,2.0,3.0,73,0.00,,,0.01,meteohub,2013-04-17 21:40:00,
2013-04-17 17:45:00,69.6,60.3,30.15,NNW,336,0.0,3.0,72,0.00,,,0.01,meteohub,2013-04-17 21:45:00,
2013-04-17 17:50:00,69.4,59.5,30.15,North,358,1.0,4.0,71,0.00,,,0.01,meteohub,2013-04-17 21:50:00,
2013-04-17 17:56:00,69.3,59.9,30.14,NW,312,0.0,4.0,72,0.00,,,0.01,meteohub,2013-04-17 21:56:00,
2013-04-17 18:01:00,69.6,60.3,30.14,WNW,293,1.0,4.0,72,0.00,,,0.01,meteohub,2013-04-17 22:01:00,
2013-04-17 18:06:00,69.6,59.4,30.14,West,264,2.0,4.0,70,0.00,,,0.01,meteohub,2013-04-17 22:06:00,
2013-04-17 18:12:00,69.6,59.7,30.14,WNW,285,2.0,4.0,71,0.00,,,0.01,meteohub,2013-04-17 22:12:00,
2013-04-17 18:17:00,70.0,60.1,30.14,NW,325,2.0,4.0,71,0.00,,,0.01,meteohub,2013-04-17 22:17:00,
2013-04-17 18:22:00,70.0,59.7,30.13,WNW,284,1.0,3.0,70,0.00,,,0.01,meteohub,2013-04-17 22:22:00,
2013-04-17 18:28:00,69.6,59.4,30.14,North,6,2.0,4.0,70,0.00,,,0.01,meteohub,2013-04-17 22:28:00,
2013-04-17 18:33:00,69.3,59.0,30.14,NW,309,0.0,4.0,70,0.00,,,0.01,meteohub,2013-04-17 22:33:00,
2013-04-17 18:38:00,68.9,59.2,30.13,North,4,0.0,3.0,71,0.00,,,0.01,meteohub,2013-04-17 22:38:00,
2013-04-17 18:44:00,68.9,59.2,30.14,WNW,287,1.0,3.0,71,0.00,,,0.01,meteohub,2013-04-17 22:44:00,
2013-04-17 18:49:00,69.1,59.7,30.13,NE,39,0.0,3.0,72,0.00,,,0.01,meteohub,2013-04-17 22:49:00,
2013-04-17 18:54:00,69.1,58.8,30.13,NNW,342,1.0,2.0,70,0.00,,,0.01,meteohub,2013-04-17 22:54:00,
2013-04-17 18:59:00,68.7,59.0,30.13,NNW,348,1.0,2.0,71,0.00,,,0.01,meteohub,2013-04-17 22:59:00,
2013-04-17 19:04:00,68.4,59.0,30.13,NNE,15,0.0,3.0,72,0.00,,,0.01,meteohub,2013-04-17 23:04:00,
2013-04-17 19:09:00,68.2,58.8,30.12,NW,318,0.0,3.0,72,0.00,,,0.01,meteohub,2013-04-17 23:09:00,
2013-04-17 19:15:00,68.2,59.2,30.12,WNW,284,0.0,3.0,73,0.00,,,0.01,meteohub,2013-04-17 23:15:00,
2013-04-17 19:20:00,68.2,59.5,30.12,WNW,283,0.0,1.0,74,0.00,,,0.01,meteohub,2013-04-17 23:20:00,
2013-04-17 19:25:00,67.6,59.0,30.12,WNW,284,0.0,1.0,74,0.00,,,0.01,meteohub,2013-04-17 23:25:00,
2013-04-17 19:31:00,67.5,58.8,30.12,West,280,0.0,1.0,74,0.00,,,0.01,meteohub,2013-04-17 23:31:00,
2013-04-17 19:37:00,66.7,58.6,30.12,West,280,0.0,1.0,75,0.00,,,0.01,meteohub,2013-04-17 23:37:00,
2013-04-17 19:42:00,66.0,58.3,30.12,West,280,0.0,1.0,76,0.00,,,0.01,meteohub,2013-04-17 23:42:00,
2013-04-17 19:47:00,65.5,58.5,30.12,West,280,0.0,1.0,78,0.00,,,0.01,meteohub,2013-04-17 23:47:00,
2013-04-17 19:52:00,64.8,58.1,30.12,West,280,0.0,0.0,79,0.00,,,0.01,meteohub,2013-04-17 23:52:00,
2013-04-17 19:57:00,64.0,58.1,30.12,West,280,0.0,0.0,81,0.00,,,0.01,meteohub,2013-04-17 23:57:00,
2013-04-17 20:02:00,63.5,57.6,30.12,West,280,1.0,1.0,81,0.00,,,0.01,meteohub,2013-04-18 00:02:00,
2013-04-17 20:07:00,63.1,57.6,30.12,West,280,0.0,1.0,82,0.00,,,0.01,meteohub,2013-04-18 00:07:00,
2013-04-17 20:12:00,62.8,57.6,30.12,West,280,0.0,1.0,83,0.00,,,0.01,meteohub,2013-04-18 00:12:00,
2013-04-17 20:17:00,62.1,57.2,30.12,West,280,0.0,1.0,84,0.00,,,0.01,meteohub,2013-04-18 00:17:00,
2013-04-17 20:23:00,61.5,57.0,30.12,West,280,0.0,1.0,85,0.00,,,0.01,meteohub,2013-04-18 00:23:00,
2013-04-17 20:28:00,61.0,56.5,30.13,West,280,0.0,0.0,85,0.00,,,0.01,meteohub,2013-04-18 00:28:00,
2013-04-17 20:33:00,60.6,56.5,30.13,West,280,0.0,0.0,86,0.00,,,0.01,meteohub,2013-04-18 00:33:00,
2013-04-17 20:38:00,60.4,56.3,30.13,SW,228,0.0,0.0,86,0.00,,,0.01,meteohub,2013-04-18 00:38:00,
2013-04-17 20:43:00,60.4,56.5,30.13,ESE,122,0.0,1.0,87,0.00,,,0.01,meteohub,2013-04-18 00:43:00,
2013-04-17 20:49:00,60.4,56.5,30.13,ESE,123,0.0,1.0,87,0.00,,,0.01,meteohub,2013-04-18 00:49:00,
2013-04-17 20:54:00,60.3,56.3,30.13,ESE,121,0.0,1.0,87,0.00,,,0.01,meteohub,2013-04-18 00:54:00,
2013-04-17 20:59:00,59.9,55.9,30.13,ESE,121,0.0,1.0,87,0.00,,,0.01,meteohub,2013-04-18 00:59:00,
2013-04-17 21:05:00,59.7,55.8,30.13,ESE,121,0.0,1.0,87,0.00,,,0.01,meteohub,2013-04-18 01:05:00,
2013-04-17 21:10:00,59.4,55.8,30.13,ESE,121,0.0,1.0,88,0.00,,,0.01,meteohub,2013-04-18 01:10:00,
2013-04-17 21:15:00,59.2,55.6,30.13,ESE,121,0.0,0.0,88,0.00,,,0.01,meteohub,2013-04-18 01:15:00,
2013-04-17 21:21:00,59.0,56.1,30.13,ESE,121,0.0,0.0,90,0.00,,,0.01,meteohub,2013-04-18 01:21:00,
2013-04-17 21:26:00,58.6,55.8,30.13,ESE,121,0.0,1.0,90,0.00,,,0.01,meteohub,2013-04-18 01:26:00,
2013-04-17 21:32:00,58.6,55.8,30.13,ESE,121,0.0,1.0,90,0.00,,,0.01,meteohub,2013-04-18 01:32:00,
2013-04-17 21:37:00,58.6,55.9,30.13,NNE,26,1.0,1.0,91,0.00,,,0.01,meteohub,2013-04-18 01:37:00,
2013-04-17 21:42:00,58.6,55.8,30.12,NNE,15,0.0,2.0,90,0.00,,,0.01,meteohub,2013-04-18 01:42:00,
2013-04-17 21:47:00,58.5,55.8,30.13,NNW,333,1.0,2.0,91,0.00,,,0.01,meteohub,2013-04-18 01:47:00,
2013-04-17 21:52:00,58.6,55.9,30.12,WNW,297,0.0,3.0,91,0.00,,,0.01,meteohub,2013-04-18 01:52:00,
2013-04-17 21:57:00,58.5,55.6,30.12,West,281,0.0,3.0,90,0.00,,,0.01,meteohub,2013-04-18 01:57:00,
2013-04-17 22:02:00,58.8,56.1,30.13,SSW,193,1.0,3.0,91,0.00,,,0.01,meteohub,2013-04-18 02:02:00,
2013-04-17 22:07:00,59.2,56.5,30.13,NNW,328,2.0,3.0,91,0.00,,,0.01,meteohub,2013-04-18 02:07:00,
2013-04-17 22:12:00,59.5,56.3,30.13,NNE,30,0.0,3.0,89,0.00,,,0.01,meteohub,2013-04-18 02:12:00,
2013-04-17 22:18:00,59.7,56.1,30.12,SW,214,0.0,6.0,88,0.00,,,0.01,meteohub,2013-04-18 02:18:00,
2013-04-17 22:23:00,60.6,57.0,30.12,ESE,123,0.0,6.0,88,0.00,,,0.01,meteohub,2013-04-18 02:23:00,
2013-04-17 22:28:00,62.1,57.6,30.12,ENE,72,1.0,4.0,85,0.00,,,0.01,meteohub,2013-04-18 02:28:00,
2013-04-17 22:33:00,63.3,57.7,30.12,NNW,330,0.0,6.0,82,0.00,,,0.01,meteohub,2013-04-18 02:33:00,
2013-04-17 22:39:00,64.0,57.7,30.11,SE,135,2.0,6.0,80,0.00,,,0.01,meteohub,2013-04-18 02:39:00,
2013-04-17 22:44:00,64.6,57.9,30.10,SSW,210,2.0,11.0,79,0.00,,,0.01,meteohub,2013-04-18 02:44:00,
2013-04-17 22:49:00,64.8,58.1,30.10,South,175,3.0,11.0,79,0.00,,,0.01,meteohub,2013-04-18 02:49:00,
2013-04-17 22:54:00,64.9,57.9,30.10,East,94,0.0,11.0,78,0.00,,,0.01,meteohub,2013-04-18 02:54:00,
2013-04-17 23:00:00,64.9,57.9,30.10,WSW,256,2.0,8.0,78,0.00,,,0.01,meteohub,2013-04-18 03:00:00,
2013-04-17 23:05:00,64.9,57.9,30.09,South,181,1.0,8.0,78,0.00,,,0.01,meteohub,2013-04-18 03:05:00,
2013-04-17 23:10:00,64.8,57.4,30.09,SSE,152,3.0,9.0,77,0.00,,,0.01,meteohub,2013-04-18 03:10:00,
2013-04-17 23:15:00,64.8,57.4,30.09,ESE,107,5.0,9.0,77,0.00,,,0.01,meteohub,2013-04-18 03:15:00,
2013-04-17 23:21:00,64.8,57.4,30.09,ESE,113,5.0,10.0,77,0.00,,,0.01,meteohub,2013-04-18 03:21:00,
2013-04-17 23:26:00,64.8,57.4,30.09,ENE,73,1.0,10.0,77,0.00,,,0.01,meteohub,2013-04-18 03:26:00,
2013-04-17 23:31:00,64.6,57.2,30.08,SE,142,4.0,10.0,77,0.00,,,0.01,meteohub,2013-04-18 03:31:00,
2013-04-17 23:37:00,64.6,57.2,30.08,East,79,7.0,9.0,77,0.00,,,0.01,meteohub,2013-04-18 03:37:00,
2013-04-17 23:42:00,64.6,57.2,30.08,SE,146,4.0,11.0,77,0.00,,,0.01,meteohub,2013-04-18 03:42:00,
2013-04-17 23:47:00,64.6,57.2,30.07,East,100,11.0,11.0,77,0.00,,,0.01,meteohub,2013-04-18 03:47:00,
2013-04-17 23:52:00,64.6,57.2,30.07,ESE,106,6.0,16.0,77,0.00,,,0.01,meteohub,2013-04-18 03:52:00,
2013-04-17 23:57:00,64.6,57.2,30.06,ESE,122,5.0,16.0,77,0.00,,,0.01,meteohub,2013-04-18 03:57:00,